[[{"header":{"parameterUnit":"m.s-1","parameterCategory":1,"la1":30.2991,"la2":30.254,"lo1":-89.0895,"lo2":-89.0444,"dy":0.0017,"dx":0.0017,"nx":28,"ny":28,"refTime":"2025-12-16T09:00:00:Z","depth":0,"parameterNumber":2,"parameterNumberName":"U-component_of_WINDS"},"data":[0,0,0,0,0,0,0,0,0,0,0,0,0,0,0,0,0,0,0,0,0,0,0,0,0,0,0,0,0,0,0,0,0,0,0,0,0,0,0,0,0,0,0,0,0,0,0,0,0,0,0,0,0,0,0,0,0,0,-1.0077,-1.0078,0,-1.0191,-1.0192,-1.0194,-1.0171,-1.0169,-1.0167,-1.0165,-1.0285,-1.029,-1.0295,0,0,0,0,0,0,0,0,0,0,0,0,0,-0.9841,-0.9845,-1.0076,-1.0078,-1.0079,-1.0191,-1.0192,-1.0194,-1.0172,-1.0169,-1.0166,-1.0164,-1.0283,-1.0289,-1.0295,0,0,0,0,0,0,0,0,0,0,0,0,0,-0.9948,-0.9847,-1.0076,-1.0081,-1.0083,-1.019,-1.0192,-1.0194,-1.0172,-1.0169,-1.0166,-1.0163,-1.0281,-1.0289,-1.0296,-1.0406,0,0,-1.032,-1.0323,0,0,0,0,0,0,0,0,-0.9942,-0.9957,-1.0079,-1.0081,-1.0083,-1.0164,-1.0153,-1.0266,-1.0173,-1.0138,-1.0165,-1.0161,-1.0247,-1.0257,-1.0286,-1.0412,-1.0417,-1.032,-1.0325,-1.0328,-1.0331,0,0,0,0,0,0,0,-0.9935,-0.9952,-1.0122,-1.0081,-1.0084,-1.0079,-1.0091,-1.0174,-1.0209,-1.0141,-1.014,-1.0153,-1.0248,-1.0278,-1.0288,-1.0419,-1.032,-1.0327,-1.0332,-1.0335,-1.0642,-1.0645,0,0,0,0,0,0,-0.9925,-0.9946,-1.0118,-1.0125,-1.0003,-1.0086,-1.0099,-1.0141,-1.0208,-1.0215,-1.0156,-1.0152,-1.0267,-1.028,-1.0293,-1.0427,-1.0328,-1.0335,-1.034,-1.0638,-1.0643,-1.0647,0,0,0,0,0,0,-0.992,-0.9941,-1.0114,-1.0035,-1.0057,-1.0093,-1.0141,-1.0145,-1.0176,-1.0219,-1.0225,-1.0181,-1.0265,-1.0282,-1.0378,-1.0431,-1.0339,-1.0346,-1.0634,-1.064,-1.0645,-1.0697,0,0,0,0,0,0,-0.9913,-0.9939,-0.9981,-1.0036,-1.0061,-1.0197,-1.0144,-1.0149,-1.0189,-1.0185,-1.0244,-1.0251,-1.0264,-1.0367,-1.0386,-1.044,-1.0352,-1.063,-1.0637,-1.0643,-1.069,-1.0703,-1.0714,0,0,0,0,0,-0.9905,-0.9991,-0.9983,-1.0004,-1.0114,-1.02,-1.0214,-1.0226,-1.0193,-1.0236,-1.0264,-1.0249,-1.0422,-1.0377,-1.0398,-1.0455,-1.0627,-1.0635,-1.0643,-1.0685,-1.0701,-1.0714,0,0,0,0,0,0,-0.9942,-0.9998,-0.999,-1.0096,-1.0143,-1.0196,-1.025,-1.0242,-1.03,-1.0294,-1.0306,-1.032,-1.0419,-1.0446,-1.0395,-1.0566,-1.052,-1.0532,-1.0545,-1.056,-1.0571,-1.0564,-1.0358,0,0,0,0,0,-0.9962,-1.0026,-1.0072,-1.0162,-1.0186,-1.0214,-1.0252,-1.0257,-1.0306,-1.0326,-1.0361,-1.0411,-1.0476,-1.0519,-1.0581,-1.0693,-1.0707,-1.0743,-1.0755,-1.0764,-1.0776,-1.0839,-1.0856,-1.0673,-1.0673,-1.0673,0,0,-1.0005,-1.0044,-1.0084,-1.017,-1.0207,-1.0275,-1.0231,-1.0304,-1.0354,-1.0338,-1.0431,-1.0459,-1.0515,-1.062,-1.0668,-1.0646,-1.0829,-1.0774,-1.0782,-1.0788,-1.0849,-1.0866,-1.0881,-1.0678,-1.0677,-1.0676,0,0,-1.0118,-1.0153,-1.0232,-1.027,-1.0326,-1.0344,-1.0363,-1.0417,-1.0434,-1.0528,-1.0517,-1.0578,-1.0689,-1.073,-1.0766,-1.0894,-1.0883,-1.0913,-1.0976,-1.1037,-1.1051,-1.1064,-1.1112,-1.1128,-1.0924,-1.0924,-1.0925,0,-1.0164,-1.0265,-1.0274,-1.0348,-1.0387,-1.0374,-1.0455,-1.0491,-1.0565,-1.0593,-1.0567,-1.0707,-1.0744,-1.0859,-1.089,-1.0919,-1.0942,-1.0908,-1.1048,-1.1061,-1.1073,-1.1119,-1.1137,-1.0928,-1.0927,-1.0927,-1.0927,0,-1.032,-1.039,-1.0447,-1.0519,-1.0564,-1.0641,-1.0662,-1.0707,-1.0708,-1.0729,-1.0825,-1.0868,-1.094,-1.0967,-1.0969,-1.1083,-1.1068,-1.1045,-1.0999,-1.1094,-1.1137,-1.1155,-1.0933,-1.0932,-1.0931,-1.093,0,0,-1.0461,-1.0536,-1.0557,-1.059,-1.0651,-1.0706,-1.0782,-1.0851,-1.089,-1.0941,-1.1007,-1.1102,-1.1081,-1.1121,-1.1127,-1.118,-1.1281,-1.1151,-1.1153,-1.1176,-1.1412,-1.1431,-1.145,-1.1274,-1.1277,-1.128,-1.1408,0,-1.0581,-1.0717,-1.0727,-1.0849,-1.0915,-1.0903,-1.097,-1.1015,-1.1036,-1.1096,-1.1119,-1.1187,-1.1154,-1.1178,-1.123,-1.1258,-1.1329,-1.1249,-1.1337,-1.134,-1.1326,-1.1473,-1.1493,-1.1612,-1.1425,-1.1427,-1.1429,0,-1.074,-1.0796,-1.0925,-1.0977,-1.1005,-1.1065,-1.113,-1.1186,-1.1237,-1.1249,-1.1294,-1.1292,-1.1372,-1.1321,-1.1433,-1.1378,-1.1414,-1.1433,-1.1438,-1.1449,-1.1392,-1.1489,-1.165,-1.1668,-1.1456,-1.1454,-1.1452,0,-1.0833,-1.094,-1.1031,-1.1059,-1.1122,-1.1165,-1.1193,-1.1241,-1.1282,-1.1338,-1.1365,-1.143,-1.1467,-1.1518,-1.1534,-1.1495,-1.1646,-1.1596,-1.1659,-1.1659,-1.1694,-1.1692,-1.1864,-1.1713,-1.1713,-1.1712,-1.1712,0,-1.0968,-1.1047,-1.1074,-1.113,-1.1219,-1.123,-1.1318,-1.1344,-1.1387,-1.1449,-1.1442,-1.15,-1.1517,-1.1579,-1.1592,-1.1684,-1.1699,-1.1713,-1.1716,-1.1715,-1.1713,-1.1741,-1.1734,-1.1717,-1.1716,-1.1715,-1.1714,0,-1.1087,-1.1107,-1.1207,-1.1257,-1.1272,-1.1336,-1.138,-1.1435,-1.1454,-1.1533,-1.1552,-1.1584,-1.1656,-1.1677,-1.1764,-1.1773,-1.1881,-1.1875,-1.1864,-1.1864,-1.1928,-1.1922,-1.2126,-1.2154,-1.1982,-1.1984,-1.1985,0,-1.1173,-1.1234,-1.1291,-1.1332,-1.1362,-1.1427,-1.1469,-1.1482,-1.1526,-1.1589,-1.1637,-1.1707,-1.1765,-1.1882,-1.1913,-1.198,-1.1977,-1.2044,-1.1987,-1.1985,-1.1981,-1.1978,-1.1985,-1.2055,-1.2057,-1.2058,-1.206,0,-1.1324,-1.1331,-1.1391,-1.1455,-1.1505,-1.1556,-1.1605,-1.1639,-1.1659,-1.1709,-1.1783,-1.1827,-1.1916,-1.1987,-1.2055,-1.2085,-1.2077,-1.2077,-1.2095,-1.2096,-1.2088,-1.2096,-1.1895,-1.2073,-1.2071,-1.207,-1.207,-1.2069,-1.1431,-1.1485,-1.1534,-1.1601,-1.1639,-1.1686,-1.174,-1.1766,-1.1828,-1.1901,-1.1904,-1.1984,-1.2034,-1.2124,-1.2157,-1.2221,-1.2202,-1.2228,-1.2235,-1.2242,-1.2249,-1.2076,-1.2233,-1.2233,-1.2232,-1.2232,-1.2232,0,-1.1583,-1.1614,-1.1675,-1.1745,-1.1798,-1.1783,-1.1837,-1.1883,-1.1954,-1.2001,-1.2057,-1.2143,-1.2212,-1.2248,-1.2317,-1.2361,-1.2359,-1.2379,-1.2377,-1.2385,-1.2261,-1.2239,-1.2379,-1.2379,-1.2379,-1.2379,-1.2379,-1.2379,-1.1669,-1.176,-1.1773,-1.1884,-1.1914,-1.1992,-1.2024,-1.2067,-1.2105,-1.22,-1.2257,-1.228,-1.2323,-1.2395,-1.2458,-1.2467,-1.2494,-1.2517,-1.2524,-1.2408,-1.2393,-1.2379,-1.2358,-1.2522,-1.2522,-1.2642,-1.2643,-1.2644]},{"header":{"parameterUnit":"m.s-1","parameterCategory":1,"la1":30.2991,"la2":30.254,"lo1":-89.0895,"lo2":-89.0444,"dy":0.0017,"dx":0.0017,"nx":28,"ny":28,"refTime":"2025-12-16T09:00:00:Z","depth":0,"parameterNumber":3,"parameterNumberName":"V-component_of_WINDS"},"data":[0,0,0,0,0,0,0,0,0,0,0,0,0,0,0,0,0,0,0,0,0,0,0,0,0,0,0,0,0,0,0,0,0,0,0,0,0,0,0,0,0,0,0,0,0,0,0,0,0,0,0,0,0,0,0,0,0,0,-1.6788,-1.6788,0,-1.6786,-1.6786,-1.6786,-1.6784,-1.6784,-1.6784,-1.6784,-1.6782,-1.6782,-1.6782,0,0,0,0,0,0,0,0,0,0,0,0,0,-1.6787,-1.6787,-1.6788,-1.6788,-1.6788,-1.6786,-1.6786,-1.6786,-1.6784,-1.6784,-1.6784,-1.6784,-1.6782,-1.6782,-1.6782,0,0,0,0,0,0,0,0,0,0,0,0,0,-1.6787,-1.6787,-1.6788,-1.6787,-1.6787,-1.6786,-1.6786,-1.6786,-1.6784,-1.6784,-1.6784,-1.6784,-1.6782,-1.6782,-1.6782,-1.6782,0,0,-1.6782,-1.6781,0,0,0,0,0,0,0,0,-1.6787,-1.6787,-1.6787,-1.6787,-1.6787,-1.6786,-1.6785,-1.6785,-1.6784,-1.6785,-1.6784,-1.6784,-1.6783,-1.6783,-1.6783,-1.6782,-1.6782,-1.6782,-1.6781,-1.6781,-1.6781,0,0,0,0,0,0,0,-1.6787,-1.6787,-1.6787,-1.6787,-1.6787,-1.6786,-1.6785,-1.6785,-1.6784,-1.6785,-1.6785,-1.6785,-1.6783,-1.6783,-1.6783,-1.6782,-1.6782,-1.6781,-1.6781,-1.6781,-1.678,-1.678,0,0,0,0,0,0,-1.6787,-1.6787,-1.6787,-1.6787,-1.6787,-1.6786,-1.6786,-1.6786,-1.6784,-1.6784,-1.6785,-1.6785,-1.6783,-1.6783,-1.6782,-1.6782,-1.6781,-1.6781,-1.6781,-1.678,-1.678,-1.678,0,0,0,0,0,0,-1.6787,-1.6787,-1.6788,-1.6787,-1.6787,-1.6786,-1.6786,-1.6786,-1.6786,-1.6784,-1.6784,-1.6785,-1.6783,-1.6783,-1.6782,-1.6782,-1.6781,-1.6781,-1.678,-1.678,-1.678,-1.6781,0,0,0,0,0,0,-1.6787,-1.6787,-1.6788,-1.6787,-1.6787,-1.6788,-1.6786,-1.6786,-1.6786,-1.6786,-1.6784,-1.6784,-1.6783,-1.6782,-1.6782,-1.6782,-1.6781,-1.678,-1.678,-1.678,-1.6781,-1.6781,-1.6781,0,0,0,0,0,-1.6787,-1.6789,-1.6788,-1.6789,-1.6788,-1.6788,-1.6788,-1.6786,-1.6786,-1.6786,-1.6785,-1.6784,-1.6782,-1.6782,-1.6782,-1.6781,-1.678,-1.678,-1.678,-1.6781,-1.6781,-1.6781,0,0,0,0,0,0,-1.6791,-1.6789,-1.6788,-1.679,-1.6789,-1.6787,-1.6788,-1.6787,-1.6786,-1.6786,-1.6784,-1.6784,-1.6783,-1.6782,-1.6783,-1.6781,-1.678,-1.678,-1.6781,-1.6782,-1.6782,-1.6782,-1.6781,0,0,0,0,0,-1.6792,-1.6792,-1.679,-1.6792,-1.6791,-1.679,-1.6789,-1.6788,-1.6787,-1.6787,-1.6786,-1.6784,-1.6783,-1.6782,-1.6781,-1.6781,-1.678,-1.678,-1.678,-1.678,-1.678,-1.6778,-1.6778,-1.678,-1.678,-1.678,0,0,-1.6794,-1.6793,-1.6793,-1.6792,-1.6791,-1.6791,-1.6789,-1.6789,-1.6788,-1.6787,-1.6786,-1.6785,-1.6783,-1.6782,-1.6781,-1.6781,-1.6779,-1.678,-1.678,-1.678,-1.6778,-1.6778,-1.6778,-1.678,-1.678,-1.678,0,0,-1.6797,-1.6797,-1.6797,-1.6796,-1.6794,-1.6793,-1.6793,-1.6791,-1.679,-1.6789,-1.6787,-1.6786,-1.6784,-1.6782,-1.6781,-1.6781,-1.678,-1.6781,-1.6781,-1.6779,-1.6779,-1.6779,-1.6777,-1.6777,-1.6781,-1.6781,-1.6781,0,-1.6799,-1.6799,-1.6797,-1.6796,-1.6795,-1.6793,-1.6793,-1.6792,-1.679,-1.6789,-1.6789,-1.6785,-1.6784,-1.6782,-1.6782,-1.6781,-1.678,-1.6781,-1.6779,-1.6779,-1.6779,-1.6777,-1.6777,-1.6781,-1.6781,-1.6781,-1.6781,0,-1.6801,-1.68,-1.6801,-1.6798,-1.6797,-1.6797,-1.6794,-1.6794,-1.6792,-1.679,-1.6788,-1.6786,-1.6784,-1.6783,-1.6782,-1.678,-1.678,-1.678,-1.6779,-1.6779,-1.6777,-1.6777,-1.6781,-1.6781,-1.6781,-1.6781,0,0,-1.6807,-1.6803,-1.6803,-1.6801,-1.6798,-1.6797,-1.6796,-1.6793,-1.6792,-1.679,-1.6788,-1.6786,-1.6785,-1.6783,-1.6782,-1.678,-1.6778,-1.6779,-1.6779,-1.6778,-1.6774,-1.6774,-1.6774,-1.6777,-1.6777,-1.6777,-1.6774,0,-1.6809,-1.6807,-1.6804,-1.6803,-1.6801,-1.6798,-1.6797,-1.6794,-1.6792,-1.679,-1.6787,-1.6785,-1.6785,-1.6783,-1.6782,-1.6779,-1.6777,-1.6779,-1.6775,-1.6774,-1.6775,-1.6773,-1.6774,-1.6771,-1.6774,-1.6774,-1.6774,0,-1.6811,-1.6809,-1.6807,-1.6802,-1.6801,-1.68,-1.6797,-1.6795,-1.6791,-1.679,-1.6787,-1.6785,-1.6783,-1.6782,-1.6778,-1.6779,-1.6777,-1.6775,-1.6775,-1.6774,-1.6774,-1.6772,-1.677,-1.6769,-1.6773,-1.6773,-1.6773,0,-1.6814,-1.6811,-1.6808,-1.6807,-1.6802,-1.6801,-1.6799,-1.6795,-1.6793,-1.679,-1.6788,-1.6785,-1.6783,-1.678,-1.6776,-1.6777,-1.6771,-1.6771,-1.6769,-1.6769,-1.6768,-1.6768,-1.6765,-1.6768,-1.6768,-1.6768,-1.6768,0,-1.6816,-1.6815,-1.6809,-1.6808,-1.6806,-1.6802,-1.68,-1.6797,-1.6794,-1.6791,-1.6789,-1.6786,-1.6782,-1.6779,-1.6776,-1.6771,-1.6771,-1.6769,-1.6768,-1.6769,-1.6769,-1.6767,-1.6767,-1.6768,-1.6768,-1.6768,-1.6768,0,-1.682,-1.6816,-1.6813,-1.6808,-1.6807,-1.6805,-1.68,-1.6798,-1.6795,-1.6792,-1.6791,-1.6786,-1.6782,-1.6778,-1.6773,-1.6771,-1.6766,-1.6765,-1.6767,-1.6766,-1.6764,-1.6764,-1.676,-1.6758,-1.6762,-1.6762,-1.6762,0,-1.6821,-1.6819,-1.6814,-1.6811,-1.6809,-1.6806,-1.6803,-1.68,-1.6797,-1.6792,-1.679,-1.6785,-1.6781,-1.6774,-1.677,-1.6765,-1.6764,-1.6763,-1.6764,-1.6764,-1.6763,-1.6763,-1.6762,-1.6763,-1.6763,-1.6763,-1.6763,0,-1.6823,-1.6821,-1.6817,-1.6813,-1.681,-1.6806,-1.6802,-1.68,-1.6796,-1.6793,-1.6788,-1.6785,-1.6778,-1.6773,-1.6768,-1.6765,-1.6763,-1.6763,-1.6762,-1.6762,-1.6763,-1.6761,-1.6766,-1.6763,-1.6763,-1.6763,-1.6763,-1.6763,-1.6824,-1.6822,-1.6817,-1.6813,-1.6809,-1.6806,-1.6803,-1.6799,-1.6795,-1.6789,-1.6787,-1.6782,-1.6777,-1.6769,-1.6766,-1.6761,-1.6761,-1.676,-1.6759,-1.6759,-1.6759,-1.6764,-1.676,-1.676,-1.676,-1.676,-1.676,0,-1.6825,-1.6821,-1.6817,-1.6812,-1.6808,-1.6806,-1.6801,-1.6798,-1.6793,-1.6789,-1.6784,-1.6778,-1.6773,-1.6768,-1.6762,-1.6759,-1.6758,-1.6757,-1.6757,-1.6756,-1.676,-1.6761,-1.6758,-1.6758,-1.6758,-1.6758,-1.6758,-1.6758,-1.6825,-1.6821,-1.6818,-1.6811,-1.6807,-1.6802,-1.6799,-1.6795,-1.6791,-1.6784,-1.6779,-1.6776,-1.6771,-1.6764,-1.6759,-1.6757,-1.6755,-1.6755,-1.6753,-1.6756,-1.6756,-1.6757,-1.6757,-1.6754,-1.6754,-1.675,-1.675,-1.6749]}]]